Location: Prestice
(49.5670°N, 13.3170°E)
Time: 18:42:02
(UTC+02:00)

ISS - Visible Passes

Search period start: 21 May 2018 00:00
Search period end: 31 May 2018 00:00
Orbit: 402 x 407 km, 51.6° (Epoch: 22 May)

Date Brightness Start Highest point End Pass type
(mag) Time Alt. Az. Time Alt. Az. Time Alt. Az.
21 May -3.4 00:45:49 10° W 00:49:04 63° N 00:52:19 10° ENE visible
21 May -3.6 02:22:30 10° WNW 02:25:46 69° NNE 02:29:01 10° E visible
21 May -3.4 03:59:05 10° W 04:02:09 38° SSW 04:05:13 10° SE visible
21 May -3.1 22:17:35 10° SSW 22:20:32 31° SSE 22:23:28 10° E visible
21 May -3.7 23:53:34 10° W 23:56:50 76° NNW 00:00:07 10° ENE visible
22 May -3.3 01:30:17 10° WNW 01:33:31 59° N 01:36:46 10° E visible
22 May -3.9 03:06:50 10° WNW 03:10:03 59° SSW 03:13:16 10° SE visible
22 May -4.0 23:01:22 10° WSW 23:04:38 82° SSE 23:07:55 10° ENE visible
23 May -3.2 00:38:01 10° W 00:41:15 57° N 00:44:30 10° E visible
23 May -4.0 02:14:37 10° WNW 02:17:53 84° SSW 02:21:09 10° ESE visible
23 May -2.6 03:51:30 10° W 03:54:02 21° SW 03:56:34 10° SSE visible
23 May -3.8 22:09:15 10° SW 22:12:28 56° SSE 22:15:41 10° ENE visible
23 May -3.3 23:45:44 10° W 23:48:59 60° N 23:52:13 10° ENE visible
24 May -3.7 01:22:23 10° WNW 01:25:40 74° NNE 01:27:53 19° E visible
24 May -2.1 02:59:01 10° W 03:00:16 19° W 03:00:16 19° W visible
24 May -3.6 22:53:26 10° W 22:56:42 70° NNW 22:59:58 10° ENE visible
25 May -3.4 00:30:08 10° WNW 00:33:23 62° N 00:35:39 18° E visible
25 May -2.3 02:06:41 10° WNW 02:08:14 24° W 02:08:14 24° W visible
25 May -3.8 22:01:10 10° WSW 22:04:27 89° N 22:07:44 10° ENE visible
25 May -3.2 23:37:52 10° WNW 23:41:05 57° N 23:44:19 10° E visible
26 May -3.6 01:14:25 10° WNW 01:17:08 56° W 01:17:08 56° W visible
26 May -3.2 22:45:32 10° W 22:48:46 58° N 22:52:01 10° ENE visible
27 May -3.8 00:22:09 10° WNW 00:25:26 81° NNE 00:26:17 46° E visible
27 May -1.1 01:58:51 10° W 01:58:53 10° W 01:58:53 10° W visible
27 May -3.4 21:53:11 10° W 21:56:27 66° N 21:59:43 10° ENE visible
27 May -3.5 23:29:53 10° WNW 23:33:08 65° N 23:35:31 17° E visible
28 May -2.3 01:06:26 10° WNW 01:08:08 26° W 01:08:08 26° W visible
28 May -3.2 22:37:34 10° WNW 22:40:49 58° N 22:44:03 10° E visible
29 May -4.0 00:14:07 10° WNW 00:17:22 66° SSW 00:17:26 66° SSW visible
29 May -3.2 21:45:13 10° W 21:48:27 57° N 21:51:42 10° ENE visible
29 May -3.9 23:21:49 10° WNW 23:25:05 88° N 23:26:46 26° ESE visible
30 May -1.5 00:58:36 10° W 00:59:24 15° W 00:59:24 15° W visible
30 May -3.6 22:29:30 10° WNW 22:32:46 70° NNE 22:36:02 10° E visible
